TimeMST,TemperatureF,Dew PointF,Humidity,Sea Level PressureIn,VisibilityMPH,Wind Direction,Wind SpeedMPH,Gust SpeedMPH,PrecipitationIn,Events,Conditions,WindDirDegrees,DateUTC
12:53 AM,19.9,10.9,68,30.45,10.0,Calm,Calm,-,N/A,,Clear,0,2013-02-16 07:53:00
1:53 AM,21.0,12.9,71,30.43,10.0,SSE,3.5,-,N/A,,Clear,160,2013-02-16 08:53:00
2:53 AM,21.0,10.9,65,30.43,10.0,ENE,3.5,-,N/A,,Clear,60,2013-02-16 09:53:00
3:53 AM,19.0,12.0,74,30.43,10.0,Calm,Calm,-,N/A,,Clear,0,2013-02-16 10:53:00
4:53 AM,19.0,10.9,71,30.44,10.0,Calm,Calm,-,N/A,,Clear,0,2013-02-16 11:53:00
5:53 AM,19.0,10.0,68,30.49,10.0,Calm,Calm,-,N/A,,Clear,0,2013-02-16 12:53:00
6:53 AM,19.0,10.0,68,30.56,10.0,Calm,Calm,-,N/A,,Clear,0,2013-02-16 13:53:00
7:53 AM,23.0,12.9,65,30.53,10.0,Calm,Calm,-,N/A,,Clear,0,2013-02-16 14:53:00
8:53 AM,30.0,15.1,54,30.53,10.0,Calm,Calm,-,N/A,,Clear,0,2013-02-16 15:53:00
9:53 AM,37.0,17.1,44,30.47,10.0,Calm,Calm,-,N/A,,Clear,0,2013-02-16 16:53:00
10:53 AM,45.0,14.0,29,30.41,10.0,Calm,Calm,-,N/A,,Clear,0,2013-02-16 17:53:00
11:53 AM,51.1,14.0,23,30.36,10.0,West,6.9,-,N/A,,Clear,260,2013-02-16 18:53:00
12:53 PM,55.0,10.9,17,30.31,10.0,WSW,4.6,-,N/A,,Clear,240,2013-02-16 19:53:00
1:53 PM,59.0,10.9,15,30.24,10.0,West,6.9,-,N/A,,Clear,280,2013-02-16 20:53:00
2:53 PM,61.0,10.0,13,30.19,10.0,WSW,9.2,-,N/A,,Clear,250,2013-02-16 21:53:00
3:53 PM,61.0,9.0,13,30.18,10.0,SW,8.1,-,N/A,,Clear,220,2013-02-16 22:53:00
4:53 PM,60.1,-2.9,8,30.17,10.0,NW,9.2,-,N/A,,Clear,320,2013-02-16 23:53:00
5:53 PM,50.0,8.1,18,30.24,10.0,West,5.8,-,N/A,,Clear,270,2013-02-17 00:53:00
6:53 PM,39.0,14.0,36,30.32,10.0,Calm,Calm,-,N/A,,Clear,0,2013-02-17 01:53:00
7:53 PM,36.0,12.9,39,30.31,10.0,Calm,Calm,-,N/A,,Clear,0,2013-02-17 02:53:00
8:53 PM,30.9,12.9,47,30.28,10.0,Calm,Calm,-,N/A,,Clear,0,2013-02-17 03:53:00
9:53 PM,26.1,12.0,55,30.26,10.0,East,4.6,-,N/A,,Clear,80,2013-02-17 04:53:00
10:53 PM,28.0,16.0,61,30.18,10.0,Calm,Calm,-,N/A,,Clear,0,2013-02-17 05:53:00
11:53 PM,24.1,14.0,65,30.15,10.0,Calm,Calm,-,N/A,,Clear,0,2013-02-17 06:53:00